{"data":{"norad_id":47826,"epoch":"2026-09-19T23:32:31.043040Z","epoch_age_seconds":74069,"freshness":"FRESH","line1":"1 47826U 21018AR  26262.98091485  .00000150  00000+0  16598-4 0  9999","line2":"2 47826  53.1598  61.1874 0001370  49.3502 310.7619 15.31705791306466","mean_motion":15.31705791,"eccentricity":0.000137,"inclination_deg":53.1598,"raan_deg":61.1874,"arg_perigee_deg":49.3502,"mean_anomaly_deg":310.7619,"bstar":1.6598e-5,"rev_number":30646,"period_min":94.012832520524,"perigee_km":469.78443882701,"apogee_km":471.66102639374,"semimajor_km":6848.8597326104,"source":"CELESTRAK","updated_at":"2026-09-20T09:00:38.750837Z"}}